Linden, NJ

10:25 PM EDT on October 19, 2017 (GMT -0400)
Linden

Weather History for KLDJ - November, 2012

Change the Weather History Date:

Saturday, November 17, 2012

  Actual Average (KEWR) Record (KEWR)
Temperature  
Mean Temperature 44 °F -  
Max Temperature 55 °F 52 °F 71 °F (1953)
Min Temperature 34 °F 36 °F 18 °F (1933)
Degree Days  
Heating Degree Days 21    
Moisture  
Dew Point 31 °F    
Average Humidity 59    
Maximum Humidity 73    
Minimum Humidity 39    
Precipitation  
Precipitation 0.00 in - - ()
Sea Level Pressure  
Sea Level Pressure 30.57 in    
Wind  
Wind Speed 4 mph (NNE)    
Max Wind Speed 13 mph    
Max Gust Speed 18 mph    
Visibility 10 miles    
Events      
Averages and records for this station are not official NWS values.
T = Trace of Precipitation, MM = Missing Value Source: NWS Daily Summary

Daily Weather History Graph

Daily Weather History Graph

Search for Another Location

Airport or City:

Trip Planner

Search our weather history database for the weather conditions in past years. The results will help you decide how hot, cold, wet, or windy it might be!

Date:

Astronomy

Nov. 17, 2012 Rise Set
Actual Time 6:46 AM EST 4:37 PM EST
Civil Twilight 6:16 AM EST 5:06 PM EST
Nautical Twilight 5:43 AM EST 5:39 PM EST
Astronomical Twilight 5:11 AM EST 6:12 PM EST
Moon 10:29 AM EST (11/17) 8:44 PM EST (11/17)
Length of Visible Light 10h 49m
Length of Day
9h 50m
Waxing Crescent, 20% of the Moon is Illuminated
Nov 17
Waxing Crescent
Nov 20
First Quarter
Nov 28
Full
Dec 6
Last Quarter
Dec 13
New

Hourly Weather History & Observations

Time (EST) Temp. Windchill Dew Point Humidity Pressure Visibility Wind Dir Wind Speed Gust Speed Precip Events Conditions
12:15 AM 38.8 °F 36.5 °F 27.9 °F 65% 30.45 in 10.0 mi North 3.5 mph - N/A   Clear
12:35 AM 38.5 °F - 27.9 °F 66% 30.46 in 10.0 mi Calm Calm - N/A   Clear
12:55 AM 38.3 °F 35.9 °F 27.9 °F 66% 30.46 in 10.0 mi NNW 3.5 mph - N/A   Clear
1:15 AM 37.8 °F - 27.5 °F 67% 30.46 in 10.0 mi Calm Calm - N/A   Clear
1:35 AM 37.4 °F 33.8 °F 27.5 °F 67% 30.47 in 10.0 mi WNW 4.6 mph - N/A   Clear
1:55 AM 36.9 °F - 27.5 °F 69% 30.47 in 10.0 mi Calm Calm - N/A   Clear
2:15 AM 36.3 °F - 27.5 °F 70% 30.47 in 10.0 mi Calm Calm - N/A   Clear
2:35 AM 36.0 °F 33.3 °F 27.5 °F 71% 30.48 in 10.0 mi NW 3.5 mph - N/A   Clear
2:55 AM 37.0 °F 31.6 °F 27.5 °F 68% 30.47 in 10.0 mi NNW 6.9 mph - N/A   Clear
3:15 AM 36.9 °F - 27.1 °F 68% 30.48 in 10.0 mi Calm Calm - N/A   Clear
3:35 AM 35.8 °F 33.0 °F 27.1 °F 71% 30.48 in 10.0 mi NW 3.5 mph - N/A   Clear
3:55 AM 36.1 °F - 27.1 °F 70% 30.49 in 10.0 mi Calm Calm - N/A   Clear
4:15 AM 36.5 °F - 27.3 °F 69% 30.50 in 10.0 mi Calm Calm - N/A   Clear
4:35 AM 36.3 °F 33.7 °F 27.3 °F 70% 30.50 in 10.0 mi WNW 3.5 mph - N/A   Clear
4:55 AM 35.1 °F 32.2 °F 27.0 °F 72% 30.52 in 10.0 mi NW 3.5 mph - N/A   Clear
5:15 AM 34.7 °F 31.8 °F 27.0 °F 73% 30.52 in 10.0 mi NW 3.5 mph - N/A   Clear
5:35 AM 35.6 °F 32.8 °F 27.0 °F 71% 30.53 in 10.0 mi North 3.5 mph - N/A   Clear
5:55 AM 37.4 °F 34.9 °F 27.3 °F 67% 30.53 in 10.0 mi North 3.5 mph - N/A   Clear
6:15 AM 37.8 °F 34.2 °F 27.3 °F 66% 30.54 in 10.0 mi North 4.6 mph - N/A   Clear
6:35 AM 38.3 °F 35.9 °F 27.5 °F 65% 30.55 in 10.0 mi NNE 3.5 mph - N/A   Clear
6:55 AM 38.5 °F 34.1 °F 27.5 °F 65% 30.56 in 10.0 mi North 5.8 mph - N/A   Clear
7:15 AM 39.6 °F 35.4 °F 28.0 °F 63% 30.57 in 10.0 mi NNE 5.8 mph - N/A   Clear
7:35 AM 41.0 °F 36.4 °F 28.4 °F 61% 30.57 in 10.0 mi NNE 6.9 mph - N/A   Clear
7:55 AM 41.9 °F 37.5 °F 28.9 °F 60% 30.58 in 10.0 mi NNE 6.9 mph - N/A   Clear
8:15 AM 43.2 °F 39.7 °F 29.3 °F 58% 30.59 in 10.0 mi NE 5.8 mph - N/A   Clear
8:35 AM 43.9 °F 38.3 °F 29.8 °F 58% 30.59 in 10.0 mi NE 10.4 mph - N/A   Clear
8:55 AM 45.1 °F 40.3 °F 30.2 °F 56% 30.60 in 10.0 mi NNE 9.2 mph - N/A   Clear
9:15 AM 46.0 °F 40.6 °F 30.9 °F 56% 30.60 in 10.0 mi NNE 11.5 mph - N/A   Clear
9:35 AM 46.9 °F - 31.1 °F 54% 30.61 in 10.0 mi NE 8.1 mph 16.1 mph N/A   Clear
9:55 AM 47.7 °F - 31.1 °F 53% 30.61 in 10.0 mi NNE 11.5 mph 17.3 mph N/A   Clear
10:15 AM 48.4 °F - 31.1 °F 51% 30.61 in 10.0 mi NE 12.7 mph 18.4 mph N/A   Clear
10:35 AM 49.3 °F - 31.5 °F 50% 30.62 in 10.0 mi NE 10.4 mph 18.4 mph N/A   Clear
10:55 AM 50.2 °F - 31.6 °F 49% 30.61 in 10.0 mi North 11.5 mph 18.4 mph N/A   Clear
11:15 AM 50.7 °F - 31.8 °F 48% 30.61 in 10.0 mi NNE 10.4 mph - N/A   Clear
11:35 AM 51.6 °F - 31.5 °F 46% 30.60 in 10.0 mi NE 8.1 mph - N/A   Clear
12:55 PM 53.8 °F - 30.0 °F 40% 30.58 in 10.0 mi NE 8.1 mph - N/A   Clear
1:15 PM 53.8 °F - 30.6 °F 41% 30.58 in 10.0 mi NE 6.9 mph - N/A   Clear
1:35 PM 54.1 °F - 30.2 °F 40% 30.58 in 10.0 mi NE 5.8 mph - N/A   Clear
1:55 PM 54.7 °F - 30.2 °F 39% 30.58 in 10.0 mi NE 4.6 mph - N/A   Clear
2:15 PM 54.7 °F - 30.4 °F 40% 30.58 in 10.0 mi NNE 4.6 mph - N/A   Clear
2:35 PM 54.5 °F - 31.1 °F 41% 30.57 in 10.0 mi ENE 5.8 mph - N/A   Clear
2:55 PM 54.9 °F - 30.6 °F 40% 30.57 in 10.0 mi Calm Calm - N/A   Clear
3:15 PM 54.9 °F - 30.7 °F 40% 30.58 in 10.0 mi ENE 4.6 mph - N/A   Clear
3:35 PM 54.5 °F - 30.9 °F 41% 30.58 in 10.0 mi ENE 4.6 mph - N/A   Clear
3:55 PM 54.1 °F - 31.6 °F 42% 30.58 in 10.0 mi East 3.5 mph - N/A   Clear
4:15 PM 53.1 °F - 32.0 °F 45% 30.58 in 10.0 mi East 3.5 mph - N/A   Clear
4:35 PM 53.2 °F - 31.8 °F 44% 30.59 in 10.0 mi SE 3.5 mph - N/A   Clear
4:55 PM 50.0 °F - 34.3 °F 55% 30.60 in 10.0 mi South 3.5 mph - N/A   Clear
5:15 PM 48.6 °F - 34.3 °F 58% 30.60 in 10.0 mi Calm Calm - N/A   Clear
5:35 PM 48.2 °F - 34.5 °F 59% 30.60 in 10.0 mi Calm Calm - N/A   Clear
5:55 PM 47.3 °F - 34.7 °F 62% 30.61 in 10.0 mi Calm Calm - N/A   Clear
6:15 PM 46.8 °F - 34.7 °F 63% 30.61 in 10.0 mi Calm Calm - N/A   Clear
6:35 PM 47.5 °F - 35.4 °F 63% 30.61 in 10.0 mi Calm Calm - N/A   Clear
6:55 PM 45.0 °F - 34.9 °F 68% 30.62 in 10.0 mi Calm Calm - N/A   Clear
7:15 PM 45.1 °F - 35.2 °F 68% 30.62 in 10.0 mi Calm Calm - N/A   Clear
7:35 PM 45.3 °F - 35.8 °F 69% 30.62 in 10.0 mi Calm Calm - N/A   Clear
7:55 PM 45.3 °F 43.0 °F 36.0 °F 70% 30.60 in 10.0 mi North 4.6 mph - N/A   Clear
8:15 PM 44.8 °F - 35.8 °F 71% 30.61 in 10.0 mi Calm Calm - N/A   Clear
8:35 PM 45.5 °F - 34.0 °F 64% 30.62 in 10.0 mi Calm Calm - N/A   Clear
8:55 PM 45.9 °F - 32.0 °F 58% 30.63 in 10.0 mi Calm Calm - N/A   Clear
9:15 PM 45.7 °F 43.4 °F 32.0 °F 59% 30.63 in 10.0 mi NNE 4.6 mph - N/A   Clear
9:35 PM 45.7 °F 42.0 °F 32.0 °F 59% 30.62 in 10.0 mi NNE 6.9 mph - N/A   Clear
9:55 PM 45.3 °F 42.3 °F 32.0 °F 60% 30.63 in 10.0 mi NNE 5.8 mph - N/A   Clear
10:15 PM 44.8 °F 41.6 °F 31.8 °F 60% 30.63 in 10.0 mi NE 5.8 mph - N/A   Clear
10:35 PM 44.6 °F 41.4 °F 31.6 °F 60% 30.63 in 10.0 mi NNE 5.8 mph - N/A   Clear
10:55 PM 44.1 °F 41.5 °F 31.1 °F 60% 30.64 in 10.0 mi NNE 4.6 mph - N/A   Clear
11:15 PM 44.4 °F 41.2 °F 31.1 °F 60% 30.65 in 10.0 mi NE 5.8 mph - N/A   Clear
11:35 PM 44.1 °F 41.5 °F 31.1 °F 60% 30.64 in 10.0 mi NNE 4.6 mph - N/A   Clear
11:55 PM 43.5 °F 40.9 °F 30.9 °F 61% 30.64 in 10.0 mi NNE 4.6 mph - N/A   Clear